Regional Weather Roundup
Issued by NWS

Home | Current Version | Previous Version | Text Only | Print | Product List | Glossary Off
Versions: 1 2 3 4 5 6 7 8 9 10 11 12 13 14 15 16 17 18 19 20 21 22 23 24 25 26 27 28 29 30 31 32 33 34 35 36 37 38 39 40 41 42 43 44 45 46 47 48 49 50

000
ASUS43 KFSD 251110
RWRSD

WEATHER ROUNDUP FOR SOUTH DAKOTA
NATIONAL WEATHER SERVICE SIOUX FALLS SD
500 AM CST SUN FEB 25 2018

NOTE: "FAIR" INDICATES FEW OR NO CLOUDS BELOW 12,000 FEET WITH NO
SIGNIFICANT WEATHER AND/OR OBSTRUCTIONS TO VISIBILITY.


SDZ001>005-009-010-012>017-251200-
NORTHWEST AND NORTH CENTRAL SOUTH DAKOTA

CITY           SKY/WX    TMP DP  RH WIND       PRES   REMARKS
BUFFALO          N/A     12   4  70 W15       29.60F WCI  -4
FAITH            N/A     14   8  77 W20G29    29.69R WCI  -3
MOBRIDGE       CLOUDY    18  12  77 NW5       29.63R WCI  11
$$

SDZ012>016-024>037-041>051-057-063-072>074-251200-
SOUTHWEST AND SOUTH CENTRAL SOUTH DAKOTA

CITY           SKY/WX    TMP DP  RH WIND       PRES   REMARKS
RAPID CTY ARPT CLEAR     13   2  61 CALM      29.72R
PIERRE         CLEAR     18  10  71 W17       29.73R WCI   3
CUSTER         PTCLDY    11  -2  56 SW3       29.65R
ELLSWORTH AFB  CLEAR     14   4  63 NW13      29.71R WCI   0
PHILIP         CLEAR     12   5  73 W10       29.77R WCI  -1
PINE RIDGE     PTCLDY   N/A N/A N/A MISG      29.79R
SPEARFISH        N/A     23   9  54 W10       29.71R WCI  12
WINNER         FAIR      25  11  55 W17       29.75R WCI  12
$$

SDZ004>011-016>023-039-040-251200-
NORTHEAST SOUTH DAKOTA

CITY           SKY/WX    TMP DP  RH WIND       PRES   REMARKS
ABERDEEN       CLEAR     15   9  76 W14       29.64R WCI   0
WATERTOWN      CLEAR      8   4  83 W16       29.59R WCI -10
BROOKINGS      CLEAR     11   6  81 W20       29.63R WCI  -7
SISSETON         N/A     13   6  74 W18       29.56R WCI  -4
$$

SDZ017-020-022-023-036>040-048>070-251200-
SOUTHEAST SOUTH DAKOTA

CITY           SKY/WX    TMP DP  RH WIND       PRES   REMARKS
SIOUX FALLS    CLOUDY    13   7  77 W9        29.71R WCI   1
HURON          CLEAR     13   7  77 W9        29.69R WCI   1
CHAMBERLAIN    PTCLDY    20  11  67 W14       29.75R WCI   7
MITCHELL       CLEAR     17   8  67 W10       29.73S WCI   5
YANKTON        CLEAR     23  13  65 SW18      29.75S WCI   9
$$

ABBREVIATIONS USED IN REMARKS
   TC - TEMPERATURE IN CELSIUS
  WCI - WIND CHILL INDEX
   HX - HEAT INDEX
  VSB - VISIBILITY




USA.gov is the U.S. government's official web portal to all federal, state and local government web resources and services.